[[{"header":{"parameterUnit":"m.s-1","parameterCategory":1,"la1":30.2991,"la2":30.254,"lo1":-89.0895,"lo2":-89.0444,"dy":0.0017,"dx":0.0017,"nx":28,"ny":28,"refTime":"2024-08-28T03:00:00:Z","depth":0,"parameterNumber":2,"parameterNumberName":"U-component_of_WINDS"},"data":[0,0,0,0,0,0,0,0,0,0,0,0,0,0,0,0,0,0,0,0,0,0,0,0,0,0,0,0,0,0,0,0,0,0,0,0,0,0,0,0,0,0,0,0,0,0,0,0,0,0,0,0,0,0,0,0,0,0,-2.2128,-2.2128,0,-2.2185,-2.2185,-2.2186,-2.2156,-2.2155,-2.2153,-2.2152,-2.2211,-2.2213,-2.2216,0,0,0,0,0,0,0,0,0,0,0,0,0,-2.1993,-2.1996,-2.2128,-2.2128,-2.2129,-2.2185,-2.2185,-2.2186,-2.2157,-2.2155,-2.2153,-2.2151,-2.221,-2.2213,-2.2217,0,0,0,0,0,0,0,0,0,0,0,0,0,-2.2051,-2.1996,-2.2128,-2.2121,-2.2121,-2.2184,-2.2185,-2.2186,-2.2157,-2.2155,-2.2152,-2.215,-2.2208,-2.2213,-2.2217,-2.229,0,0,-2.2231,-2.2233,0,0,0,0,0,0,0,0,-2.2048,-2.2056,-2.2121,-2.2122,-2.2122,-2.2161,-2.2159,-2.2221,-2.2158,-2.2143,-2.2152,-2.2149,-2.2196,-2.2201,-2.2217,-2.2293,-2.2296,-2.2231,-2.2234,-2.2236,-2.2237,0,0,0,0,0,0,0,-2.2044,-2.2053,-2.215,-2.2122,-2.2123,-2.2115,-2.2121,-2.2171,-2.2182,-2.2144,-2.2142,-2.215,-2.2196,-2.2213,-2.2218,-2.2296,-2.2231,-2.2235,-2.2238,-2.224,-2.2435,-2.2437,0,0,0,0,0,0,-2.204,-2.205,-2.2148,-2.2152,-2.2078,-2.2119,-2.2126,-2.2151,-2.2181,-2.2184,-2.2151,-2.2148,-2.2206,-2.2213,-2.222,-2.2307,-2.2236,-2.224,-2.2243,-2.2432,-2.2435,-2.2438,0,0,0,0,0,0,-2.2037,-2.2049,-2.2146,-2.2101,-2.2112,-2.2124,-2.2152,-2.2153,-2.217,-2.2186,-2.2188,-2.2167,-2.2205,-2.2214,-2.2273,-2.2309,-2.2242,-2.2246,-2.2429,-2.2433,-2.2436,-2.2482,0,0,0,0,0,0,-2.2034,-2.2048,-2.2076,-2.2101,-2.2115,-2.2198,-2.2155,-2.2156,-2.2178,-2.2174,-2.2201,-2.2204,-2.2204,-2.2266,-2.2277,-2.2314,-2.225,-2.2426,-2.2431,-2.2435,-2.2478,-2.2487,-2.2495,0,0,0,0,0,-2.2029,-2.2087,-2.2078,-2.209,-2.215,-2.22,-2.2208,-2.2206,-2.2181,-2.2209,-2.2219,-2.2203,-2.2303,-2.2273,-2.2285,-2.2323,-2.2424,-2.2429,-2.2435,-2.2474,-2.2485,-2.2495,0,0,0,0,0,0,-2.2066,-2.209,-2.208,-2.2149,-2.2173,-2.2195,-2.2231,-2.2219,-2.2251,-2.2246,-2.2243,-2.2249,-2.231,-2.2323,-2.2288,-2.2395,-2.2359,-2.2368,-2.2385,-2.2396,-2.2405,-2.24,-2.2253,0,0,0,0,0,-2.2083,-2.2121,-2.214,-2.2199,-2.2211,-2.2219,-2.2241,-2.2237,-2.2262,-2.2272,-2.2287,-2.2312,-2.2348,-2.2373,-2.2408,-2.2479,-2.2485,-2.2512,-2.2521,-2.2528,-2.2535,-2.2573,-2.2585,-2.2456,-2.2456,-2.2456,0,0,-2.2117,-2.2135,-2.2159,-2.2207,-2.2225,-2.2265,-2.2228,-2.2272,-2.2301,-2.2279,-2.2335,-2.2347,-2.2374,-2.244,-2.2469,-2.2452,-2.2572,-2.2535,-2.2541,-2.2544,-2.258,-2.2592,-2.2603,-2.246,-2.2459,-2.2459,0,0,-2.2199,-2.2217,-2.2267,-2.2286,-2.2313,-2.2318,-2.233,-2.2355,-2.2361,-2.2418,-2.2402,-2.2437,-2.2501,-2.2521,-2.2539,-2.2628,-2.2614,-2.264,-2.2686,-2.2723,-2.2733,-2.2742,-2.2774,-2.2785,-2.2647,-2.2647,-2.2647,0,-2.2238,-2.2297,-2.2294,-2.2339,-2.236,-2.2342,-2.2392,-2.2411,-2.2449,-2.2464,-2.2444,-2.2523,-2.254,-2.261,-2.2631,-2.2647,-2.266,-2.2637,-2.2732,-2.2741,-2.2749,-2.2779,-2.2791,-2.265,-2.2649,-2.2649,-2.2649,0,-2.2343,-2.2385,-2.2422,-2.2459,-2.2484,-2.2532,-2.2536,-2.2562,-2.2556,-2.2563,-2.262,-2.264,-2.2678,-2.2695,-2.269,-2.2764,-2.2752,-2.2732,-2.2696,-2.2765,-2.2792,-2.2804,-2.2654,-2.2653,-2.2652,-2.2651,0,0,-2.2452,-2.2485,-2.2499,-2.2515,-2.2544,-2.2576,-2.2623,-2.266,-2.2682,-2.2709,-2.2747,-2.2802,-2.2783,-2.2804,-2.2801,-2.2834,-2.2903,-2.281,-2.2811,-2.2826,-2.2985,-2.2999,-2.3012,-2.2894,-2.2896,-2.2897,-2.2982,0,-2.2536,-2.2617,-2.2615,-2.2691,-2.2729,-2.2711,-2.2751,-2.2774,-2.2781,-2.2814,-2.2822,-2.2861,-2.2834,-2.2846,-2.2878,-2.2888,-2.2934,-2.2882,-2.2929,-2.2931,-2.2923,-2.3027,-2.3043,-2.3122,-2.2993,-2.2995,-2.2996,0,-2.2645,-2.2674,-2.2754,-2.2776,-2.2792,-2.2829,-2.2862,-2.2894,-2.2919,-2.2922,-2.2945,-2.2937,-2.2984,-2.2946,-2.3011,-2.2975,-2.2994,-2.3002,-2.3005,-2.301,-2.2968,-2.3034,-2.3147,-2.3159,-2.3014,-2.3012,-2.3011,0,-2.2715,-2.2775,-2.283,-2.2844,-2.2872,-2.2898,-2.2911,-2.2933,-2.2955,-2.2985,-2.2999,-2.3034,-2.3052,-2.3079,-2.3081,-2.3053,-2.3146,-2.3109,-2.3149,-2.3149,-2.317,-2.3168,-2.3287,-2.3183,-2.3182,-2.3182,-2.3182,0,-2.2809,-2.2858,-2.2862,-2.2896,-2.295,-2.2947,-2.3001,-2.3011,-2.3031,-2.3066,-2.3053,-2.3087,-2.3086,-2.3121,-2.3122,-2.3175,-2.3184,-2.3187,-2.3187,-2.3188,-2.3188,-2.3201,-2.3195,-2.3185,-2.3185,-2.3184,-2.3184,0,-2.2897,-2.2902,-2.296,-2.2982,-2.2988,-2.3027,-2.3045,-2.3077,-2.3083,-2.3128,-2.3138,-2.3148,-2.3187,-2.3191,-2.3237,-2.3237,-2.3301,-2.3295,-2.3293,-2.3292,-2.3332,-2.3328,-2.3464,-2.3481,-2.3365,-2.3366,-2.3367,0,-2.2957,-2.2994,-2.3019,-2.3042,-2.3056,-2.3093,-2.3115,-2.3113,-2.3137,-2.3167,-2.3196,-2.3233,-2.3264,-2.3327,-2.3338,-2.3373,-2.3368,-2.3413,-2.3373,-2.3373,-2.3368,-2.3366,-2.3369,-2.342,-2.3422,-2.3423,-2.3423,0,-2.3063,-2.3063,-2.3095,-2.3128,-2.3155,-2.3182,-2.3206,-2.3225,-2.3227,-2.3254,-2.3294,-2.3317,-2.3364,-2.3401,-2.3435,-2.3448,-2.3437,-2.3436,-2.3447,-2.3449,-2.3446,-2.3448,-2.3314,-2.3433,-2.3432,-2.3431,-2.3431,-2.343,-2.3138,-2.317,-2.3192,-2.3229,-2.3247,-2.327,-2.3301,-2.331,-2.3343,-2.338,-2.3377,-2.3421,-2.3444,-2.3489,-2.3504,-2.3538,-2.3523,-2.354,-2.3544,-2.3548,-2.3552,-2.344,-2.3545,-2.3544,-2.3544,-2.3544,-2.3544,0,-2.3243,-2.3256,-2.3289,-2.3324,-2.3352,-2.3338,-2.3364,-2.3389,-2.3427,-2.3449,-2.3479,-2.3525,-2.3561,-2.3574,-2.361,-2.3635,-2.363,-2.3644,-2.3642,-2.3645,-2.3563,-2.355,-2.3647,-2.3647,-2.3647,-2.3647,-2.3647,-2.3647,-2.33,-2.3353,-2.3356,-2.3418,-2.343,-2.3473,-2.3489,-2.351,-2.3527,-2.3579,-2.3608,-2.3617,-2.3635,-2.3672,-2.3704,-2.3707,-2.3721,-2.3737,-2.3738,-2.3661,-2.3651,-2.3641,-2.3628,-2.374,-2.374,-2.3817,-2.3817,-2.3818]},{"header":{"parameterUnit":"m.s-1","parameterCategory":1,"la1":30.2991,"la2":30.254,"lo1":-89.0895,"lo2":-89.0444,"dy":0.0017,"dx":0.0017,"nx":28,"ny":28,"refTime":"2024-08-28T03:00:00:Z","depth":0,"parameterNumber":3,"parameterNumberName":"V-component_of_WINDS"},"data":[0,0,0,0,0,0,0,0,0,0,0,0,0,0,0,0,0,0,0,0,0,0,0,0,0,0,0,0,0,0,0,0,0,0,0,0,0,0,0,0,0,0,0,0,0,0,0,0,0,0,0,0,0,0,0,0,0,0,0.793,0.793,0,0.7916,0.7916,0.7916,0.7886,0.7885,0.7884,0.7884,0.787,0.787,0.7871,0,0,0,0,0,0,0,0,0,0,0,0,0,0.7929,0.793,0.793,0.793,0.793,0.7916,0.7916,0.7916,0.7886,0.7885,0.7884,0.7884,0.787,0.787,0.7871,0,0,0,0,0,0,0,0,0,0,0,0,0,0.7924,0.793,0.793,0.7913,0.7911,0.7917,0.7916,0.7916,0.7886,0.7885,0.7884,0.7883,0.787,0.787,0.7871,0.7891,0,0,0.7872,0.7872,0,0,0,0,0,0,0,0,0.7925,0.7924,0.7916,0.7914,0.7912,0.7902,0.7911,0.7908,0.7886,0.7896,0.7884,0.7883,0.7882,0.7881,0.788,0.7891,0.789,0.7872,0.7872,0.7872,0.7872,0,0,0,0,0,0,0,0.7925,0.7925,0.7925,0.7916,0.7914,0.7906,0.7904,0.791,0.7894,0.7895,0.7892,0.7891,0.788,0.788,0.788,0.789,0.7872,0.7872,0.7872,0.7872,0.7916,0.7917,0,0,0,0,0,0,0.7928,0.7925,0.7925,0.7924,0.7916,0.7907,0.7905,0.7906,0.7894,0.7891,0.7892,0.789,0.788,0.7879,0.7879,0.7902,0.7872,0.7872,0.7873,0.7915,0.7916,0.7917,0,0,0,0,0,0,0.7928,0.7928,0.7926,0.7924,0.7923,0.7908,0.791,0.7906,0.7906,0.7892,0.7889,0.7895,0.7879,0.7879,0.7888,0.7901,0.7873,0.7873,0.7914,0.7915,0.7917,0.7948,0,0,0,0,0,0,0.7928,0.7928,0.7936,0.7924,0.7923,0.7935,0.791,0.7907,0.7907,0.7904,0.7894,0.7891,0.7878,0.7888,0.7889,0.7901,0.7873,0.7913,0.7915,0.7916,0.7946,0.7951,0.7955,0,0,0,0,0,0.7928,0.7946,0.7937,0.7937,0.7933,0.7936,0.7935,0.7921,0.7908,0.7915,0.7906,0.7891,0.79,0.7889,0.789,0.7902,0.7912,0.7914,0.7916,0.7944,0.795,0.7955,0,0,0,0,0,0,0.796,0.7944,0.7934,0.7948,0.7944,0.7931,0.794,0.7927,0.7926,0.7924,0.7905,0.7903,0.7915,0.791,0.7899,0.7921,0.7903,0.7906,0.7925,0.793,0.7934,0.7935,0.7873,0,0,0,0,0,0.7968,0.7972,0.7958,0.7972,0.7971,0.7956,0.7957,0.7946,0.794,0.7938,0.793,0.7925,0.7926,0.7928,0.7929,0.7945,0.7942,0.7954,0.7958,0.7962,0.7964,0.7972,0.7977,0.7924,0.7924,0.7924,0,0,0.7986,0.7978,0.7982,0.7979,0.7974,0.7978,0.7954,0.796,0.7963,0.7939,0.7947,0.7941,0.7935,0.7948,0.7953,0.7944,0.7978,0.7965,0.7968,0.7968,0.7975,0.798,0.7984,0.7926,0.7926,0.7925,0,0,0.8021,0.8015,0.8026,0.8022,0.8014,0.8004,0.8007,0.7996,0.7991,0.7999,0.7981,0.7984,0.7987,0.7983,0.7981,0.8014,0.8,0.8015,0.8037,0.8045,0.8049,0.8052,0.8063,0.8067,0.8017,0.8017,0.8017,0,0.8044,0.8049,0.8033,0.804,0.8039,0.8017,0.8028,0.8024,0.8018,0.8017,0.8007,0.801,0.8004,0.8015,0.8023,0.8023,0.8025,0.8016,0.8049,0.8053,0.8056,0.8066,0.807,0.8019,0.8019,0.8018,0.8018,0,0.8078,0.8082,0.8092,0.8086,0.8086,0.8094,0.8079,0.8081,0.807,0.8061,0.8069,0.8062,0.806,0.8062,0.8051,0.8072,0.8066,0.8053,0.8034,0.8063,0.8072,0.8076,0.8021,0.8021,0.802,0.802,0,0,0.8132,0.8117,0.812,0.8117,0.8107,0.811,0.8118,0.8116,0.8118,0.8114,0.8119,0.8122,0.811,0.8108,0.8097,0.8103,0.8129,0.8089,0.8089,0.8096,0.815,0.816,0.8164,0.812,0.812,0.8121,0.815,0,0.8164,0.8176,0.8161,0.8176,0.8179,0.8158,0.8165,0.816,0.8151,0.8153,0.8144,0.8146,0.8129,0.8128,0.8134,0.8124,0.8139,0.8122,0.8124,0.8124,0.8126,0.8169,0.818,0.8208,0.8154,0.8154,0.8155,0,0.8203,0.82,0.8216,0.8204,0.8205,0.8211,0.8208,0.821,0.8203,0.8197,0.8194,0.8181,0.8187,0.8169,0.8177,0.8166,0.8165,0.8161,0.8162,0.8161,0.8141,0.8169,0.8216,0.8221,0.8161,0.816,0.816,0,0.824,0.8241,0.825,0.8248,0.8235,0.8239,0.8234,0.8227,0.8226,0.8224,0.8223,0.8221,0.822,0.8219,0.8205,0.8193,0.8214,0.8195,0.8208,0.8209,0.8213,0.8213,0.8261,0.8214,0.8214,0.8214,0.8214,0,0.8277,0.8287,0.8266,0.8272,0.8282,0.8265,0.8276,0.8268,0.8262,0.8265,0.8247,0.8251,0.8232,0.8234,0.8223,0.8231,0.823,0.8225,0.8222,0.8226,0.8227,0.8226,0.8223,0.8215,0.8215,0.8215,0.8215,0,0.832,0.8307,0.8315,0.8302,0.8299,0.8307,0.8296,0.83,0.8291,0.8295,0.8295,0.828,0.8281,0.8267,0.8265,0.8258,0.827,0.8264,0.8272,0.827,0.8284,0.8283,0.8332,0.8337,0.8288,0.8289,0.8289,0,0.8344,0.8352,0.8339,0.834,0.8336,0.8338,0.8337,0.8321,0.8321,0.8313,0.8318,0.8317,0.8316,0.8318,0.8307,0.8305,0.8298,0.8316,0.8298,0.8302,0.8298,0.8297,0.8298,0.8319,0.832,0.8321,0.8321,0,0.8389,0.8382,0.8381,0.8379,0.8378,0.8375,0.8371,0.8373,0.8355,0.8356,0.8356,0.8355,0.8353,0.8352,0.8348,0.8343,0.8329,0.8327,0.8329,0.8334,0.8338,0.8335,0.8282,0.8325,0.8325,0.8325,0.8324,0.8324,0.8423,0.8428,0.842,0.842,0.8415,0.8411,0.8415,0.8405,0.8405,0.8402,0.8392,0.8394,0.8387,0.838,0.8375,0.8376,0.8368,0.8372,0.8373,0.8374,0.8377,0.8338,0.8376,0.8376,0.8375,0.8375,0.8375,0,0.8466,0.8459,0.846,0.8454,0.8454,0.8441,0.8436,0.8436,0.8438,0.8432,0.8431,0.8431,0.843,0.8419,0.8416,0.8419,0.8413,0.8419,0.8419,0.8417,0.8385,0.8382,0.8425,0.8425,0.8425,0.8425,0.8425,0.8424,0.8488,0.8495,0.8487,0.8492,0.8485,0.8487,0.8485,0.8481,0.8477,0.8477,0.8477,0.8469,0.8461,0.8457,0.8456,0.8452,0.8452,0.8461,0.8455,0.8425,0.842,0.8415,0.8413,0.8461,0.8461,0.8487,0.8488,0.8488]}]]